Total_Precipitation_Accumulation
0.22 0.24 0.30 0.52 0.57 0.49 0.54 0.56 0.62 0.55 0.58 0.68 0.76 0.83 0.82 0.81 0.73 0.66 0.65 0.62 0.58 0.54 0.54 0.56 0.61 0.69 0.83 1.14 1.37 1.38 1.35 1.18 1.08 1.07 1.05 1.02 1.04 1.08 1.00 0.86 0.79 0.77 0.85 0.93
0.20 0.20 0.22 0.25 0.19 0.19 0.25 0.31 0.39 0.45 0.56 0.61 0.68 0.69 0.74 0.72 0.57 0.55 0.56 0.55 0.55 0.50 0.46 0.44 0.45 0.52 0.63 0.84 1.04 1.12 1.14 1.07 0.96 0.97 0.94 0.87 0.91 1.03 1.08 0.94 0.86 0.80 0.78 0.77
0.28 0.22 0.26 0.23 0.15 0.21 0.27 0.29 0.33 0.48 0.63 0.69 0.73 0.77 1.07 1.08 0.76 0.61 0.61 0.55 0.56 0.55 0.50 0.50 0.50 0.50 0.52 0.61 0.75 0.85 0.88 0.84 0.74 0.77 0.91 0.95 1.00 1.00 0.91 0.85 0.87 0.85 0.76 0.68
0.37 0.36 0.44 0.25 0.14 0.20 0.25 0.27 0.28 0.32 0.38 0.46 0.58 0.68 0.83 0.91 0.78 0.65 0.63 0.55 0.54 0.51 0.46 0.47 0.49 0.50 0.54 0.55 0.59 0.64 0.62 0.60 0.56 0.64 0.82 0.88 0.84 0.81 0.75 0.74 0.79 0.85 0.77 0.71
0.46 0.57 0.46 0.20 0.14 0.17 0.19 0.21 0.19 0.22 0.21 0.25 0.29 0.28 0.28 0.31 0.35 0.37 0.35 0.33 0.35 0.38 0.35 0.33 0.35 0.40 0.42 0.40 0.43 0.45 0.45 0.46 0.53 0.57 0.60 0.64 0.63 0.62 0.66 0.72 0.74 0.68 0.71 0.85
0.52 0.61 0.51 0.25 0.15 0.13 0.18 0.30 0.18 0.17 0.16 0.17 0.19 0.25 0.21 0.24 0.18 0.15 0.16 0.18 0.26 0.35 0.37 0.31 0.32 0.38 0.39 0.39 0.40 0.41 0.42 0.48 0.52 0.55 0.60 0.61 0.64 0.65 0.67 0.69 0.73 0.74 0.77 0.89
0.45 0.57 0.38 0.19 0.16 0.17 0.31 0.31 0.15 0.11 0.10 0.10 0.13 0.17 0.16 0.19 0.17 0.14 0.17 0.19 0.23 0.29 0.36 0.35 0.35 0.36 0.37 0.40 0.42 0.48 0.50 0.49 0.50 0.53 0.58 0.64 0.71 0.72 0.71 0.71 0.73 0.78 0.79 0.82
0.39 0.50 0.40 0.17 0.18 0.28 0.29 0.17 0.13 0.11 0.11 0.11 0.12 0.13 0.12 0.13 0.15 0.13 0.15 0.17 0.21 0.25 0.34 0.38 0.40 0.40 0.43 0.43 0.44 0.50 0.52 0.50 0.51 0.56 0.58 0.63 0.74 0.79 0.78 0.79 0.77 0.77 0.79 0.84
0.40 0.38 0.26 0.19 0.19 0.21 0.20 0.18 0.14 0.14 0.12 0.11 0.13 0.13 0.13 0.14 0.17 0.12 0.12 0.17 0.21 0.24 0.31 0.37 0.41 0.45 0.48 0.47 0.47 0.49 0.50 0.53 0.56 0.59 0.59 0.59 0.65 0.72 0.76 0.80 0.81 0.80 0.81 0.85
0.28 0.20 0.15 0.17 0.18 0.17 0.16 0.16 0.15 0.16 0.17 0.16 0.16 0.16 0.16 0.16 0.18 0.16 0.13 0.13 0.16 0.20 0.26 0.34 0.39 0.42 0.49 0.51 0.51 0.53 0.55 0.61 0.64 0.66 0.66 0.64 0.66 0.70 0.74 0.77 0.79 0.77 0.76 0.83
0.25 0.16 0.12 0.13 0.16 0.18 0.16 0.15 0.16 0.16 0.17 0.17 0.18 0.17 0.15 0.15 0.16 0.15 0.17 0.16 0.16 0.17 0.21 0.28 0.34 0.38 0.46 0.52 0.57 0.58 0.58 0.65 0.72 0.73 0.72 0.72 0.72 0.72 0.71 0.70 0.76 0.76 0.75 0.79
0.22 0.15 0.14 0.13 0.14 0.17 0.20 0.19 0.16 0.14 0.14 0.15 0.16 0.15 0.14 0.15 0.16 0.17 0.18 0.19 0.19 0.19 0.19 0.22 0.27 0.31 0.37 0.42 0.51 0.59 0.64 0.65 0.67 0.73 0.75 0.71 0.70 0.70 0.73 0.73 0.79 0.77 0.74 0.77
0.11 0.11 0.11 0.11 0.13 0.15 0.17 0.17 0.14 0.12 0.13 0.14 0.16 0.16 0.16 0.17 0.18 0.18 0.19 0.20 0.22 0.21 0.20 0.19 0.21 0.25 0.30 0.35 0.42 0.51 0.58 0.62 0.63 0.63 0.65 0.69 0.71 0.70 0.72 0.72 0.71 0.73 0.74 0.77
0.07 0.08 0.10 0.10 0.12 0.12 0.13 0.15 0.13 0.12 0.13 0.14 0.16 0.18 0.20 0.21 0.21 0.21 0.22 0.21 0.23 0.22 0.22 0.21 0.21 0.23 0.27 0.32 0.38 0.44 0.53 0.64 0.65 0.62 0.63 0.68 0.72 0.73 0.74 0.78 0.79 0.72 0.70 0.72
0.07 0.07 0.09 0.09 0.10 0.10 0.10 0.13 0.15 0.15 0.16 0.16 0.16 0.19 0.23 0.22 0.22 0.24 0.24 0.22 0.21 0.21 0.25 0.26 0.27 0.27 0.28 0.31 0.34 0.37 0.45 0.56 0.62 0.64 0.64 0.68 0.72 0.74 0.74 0.75 0.79 0.82 0.80 0.76
0.10 0.08 0.08 0.08 0.09 0.10 0.11 0.15 0.18 0.20 0.20 0.20 0.19 0.22 0.23 0.24 0.24 0.25 0.28 0.26 0.25 0.26 0.27 0.28 0.30 0.32 0.34 0.34 0.34 0.36 0.41 0.55 0.61 0.63 0.64 0.65 0.69 0.72 0.75 0.73 0.71 0.73 0.76 0.76
0.19 0.16 0.13 0.13 0.11 0.10 0.10 0.13 0.16 0.20 0.20 0.21 0.23 0.23 0.24 0.23 0.24 0.25 0.27 0.28 0.29 0.27 0.27 0.27 0.29 0.31 0.35 0.35 0.35 0.34 0.39 0.48 0.58 0.62 0.61 0.61 0.63 0.66 0.69 0.73 0.73 0.72 0.72 0.81
0.20 0.19 0.17 0.15 0.13 0.11 0.10 0.10 0.12 0.17 0.19 0.19 0.20 0.21 0.22 0.23 0.24 0.24 0.25 0.27 0.29 0.28 0.26 0.27 0.28 0.30 0.32 0.32 0.32 0.34 0.40 0.46 0.51 0.57 0.64 0.65 0.62 0.60 0.61 0.63 0.69 0.71 0.69 0.74
0.16 0.16 0.14 0.13 0.13 0.12 0.11 0.11 0.12 0.13 0.15 0.17 0.19 0.19 0.19 0.21 0.22 0.22 0.23 0.25 0.27 0.28 0.27 0.26 0.31 0.30 0.30 0.31 0.33 0.33 0.40 0.46 0.51 0.55 0.60 0.67 0.68 0.61 0.59 0.60 0.65 0.72 0.72 0.71
0.11 0.10 0.11 0.11 0.12 0.12 0.13 0.12 0.13 0.14 0.15 0.16 0.17 0.17 0.17 0.17 0.20 0.22 0.22 0.22 0.27 0.29 0.27 0.26 0.25 0.24 0.25 0.30 0.37 0.39 0.46 0.51 0.53 0.53 0.57 0.60 0.61 0.64 0.67 0.67 0.66 0.70 0.72 0.73
0.13 0.12 0.11 0.11 0.11 0.11 0.13 0.13 0.13 0.12 0.13 0.15 0.16 0.16 0.16 0.16 0.20 0.23 0.24 0.24 0.25 0.27 0.26 0.28 0.26 0.28 0.31 0.37 0.40 0.40 0.48 0.54 0.57 0.58 0.61 0.65 0.67 0.67 0.71 0.76 0.75 0.76 0.79 0.78
0.13 0.13 0.12 0.12 0.12 0.11 0.10 0.11 0.11 0.11 0.11 0.12 0.14 0.15 0.16 0.16 0.18 0.20 0.25 0.30 0.32 0.35 0.30 0.29 0.31 0.38 0.46 0.53 0.46 0.43 0.46 0.51 0.57 0.61 0.65 0.71 0.75 0.74 0.73 0.77 0.80 0.81 0.81 0.80
0.16 0.15 0.15 0.14 0.15 0.14 0.11 0.10 0.10 0.11 0.11 0.12 0.15 0.17 0.21 0.22 0.22 0.25 0.31 0.35 0.35 0.39 0.36 0.38 0.45 0.49 0.53 0.50 0.47 0.46 0.45 0.48 0.54 0.58 0.63 0.71 0.77 0.79 0.77 0.75 0.78 0.82 0.83 0.81
0.19 0.19 0.19 0.19 0.19 0.18 0.16 0.14 0.14 0.14 0.13 0.14 0.17 0.20 0.24 0.28 0.30 0.31 0.34 0.40 0.43 0.43 0.38 0.41 0.48 0.52 0.53 0.45 0.43 0.43 0.46 0.49 0.54 0.58 0.61 0.66 0.71 0.74 0.77 0.79 0.83 0.87 0.90 0.92
0.22 0.23 0.25 0.25 0.26 0.26 0.24 0.22 0.20 0.20 0.20 0.21 0.21 0.23 0.25 0.28 0.32 0.35 0.38 0.39 0.43 0.45 0.40 0.41 0.46 0.48 0.43 0.40 0.42 0.44 0.45 0.49 0.56 0.59 0.59 0.63 0.66 0.72 0.76 0.77 0.84 0.93 0.99 1.01
0.25 0.25 0.29 0.30 0.29 0.29 0.29 0.29 0.30 0.30 0.30 0.30 0.28 0.28 0.29 0.30 0.30 0.33 0.37 0.39 0.43 0.47 0.43 0.40 0.39 0.40 0.38 0.39 0.41 0.43 0.44 0.46 0.50 0.53 0.55 0.60 0.62 0.65 0.71 0.74 0.79 0.87 0.95 0.99
0.34 0.31 0.30 0.33 0.34 0.33 0.33 0.36 0.41 0.42 0.43 0.44 0.43 0.40 0.38 0.37 0.35 0.34 0.34 0.35 0.37 0.41 0.44 0.44 0.42 0.42 0.43 0.41 0.41 0.42 0.45 0.48 0.51 0.54 0.58 0.61 0.66 0.72 0.78 0.81 0.83 0.87 0.91 0.93